Greenville, MS

7:54 PM CDT on August 16, 2017 (GMT -0500)
Mid Delta Regional

Weather History for KGLH - December, 2012

Change the Weather History Date:

Sunday, December 30, 2012

  Actual Average Record
Temperature  
Mean Temperature 34 °F 43 °F  
Max Temperature 44 °F 52 °F 78 °F (1923)
Min Temperature 23 °F 34 °F 20 °F (2000)
Degree Days  
Heating Degree Days 31 22  
Month to date heating degree days 411 600  
Since 1 July heating degree days 950 1062  
Cooling Degree Days 0 0  
Month to date cooling degree days 7 0  
Year to date cooling degree days 2453 2186  
Moisture  
Dew Point 26 °F    
Average Humidity 77    
Maximum Humidity 100    
Minimum Humidity 53    
Precipitation  
Precipitation 0.00 in 0.13 in 2.60 in (2006)
Month to date precipitation 5.15 5.48  
Year to date precipitation 41.40 52.50  
Sea Level Pressure  
Sea Level Pressure 30.49 in    
Wind  
Wind Speed 2 mph (ESE)    
Max Wind Speed 10 mph    
Max Gust Speed 13 mph    
Visibility 6 miles    
Events      
T = Trace of Precipitation, MM = Missing Value Source: NWS Daily Summary

Daily Weather History Graph

Daily Weather History Graph

Search for Another Location

Airport or City:

Trip Planner

Search our weather history database for the weather conditions in past years. The results will help you decide how hot, cold, wet, or windy it might be!

Date:

Astronomy

Dec. 30, 2012 Rise Set
Actual Time 7:07 AM CST 5:05 PM CST
Civil Twilight 6:40 AM CST 5:33 PM CST
Nautical Twilight 6:09 AM CST 6:04 PM CST
Astronomical Twilight 5:38 AM CST 6:34 PM CST
Moon 7:29 PM CST (12/30) 8:23 AM CST (12/30)
Length of Visible Light 10h 53m
Length of Day
9h 58m
Waning Gibbous, 95% of the Moon is Illuminated
Dec 30
Waning Gibbous
Jan 4
Last Quarter
Jan 11
New
Jan 18
First Quarter
Jan 26
Full

Hourly Weather History & Observations

Time (CST) Temp. Windchill Dew Point Humidity Pressure Visibility Wind Dir Wind Speed Gust Speed Precip Events Conditions
12:53 AM 25.0 °F - 24.1 °F 96% 30.48 in 4.0 mi Calm Calm - N/A   Clear
1:49 AM 26.6 °F - 24.8 °F 93% 30.46 in 1.8 mi Calm Calm - N/A   Clear
1:53 AM 26.1 °F - 24.1 °F 92% 30.49 in 1.5 mi Calm Calm - N/A   Clear
2:00 AM 26.6 °F - 24.8 °F 93% 30.46 in 3.0 mi Calm Calm - N/A   Clear
2:53 AM 25.0 °F - 21.9 °F 88% 30.51 in 5.0 mi Calm Calm - N/A   Clear
3:37 AM 24.8 °F - 21.2 °F 86% 30.48 in 1.5 mi Calm Calm - N/A   Clear
3:47 AM 24.8 °F - 23.0 °F 93% 30.48 in 3.0 mi Calm Calm - N/A   Clear
3:53 AM 25.0 °F - 21.9 °F 88% 30.51 in 5.0 mi Calm Calm - N/A   Clear
4:10 AM 24.8 °F - 21.2 °F 86% 30.47 in 2.0 mi Calm Calm - N/A   Clear
4:35 AM 24.8 °F - 23.0 °F 93% 30.49 in 4.0 mi Calm Calm - N/A   Clear
4:53 AM 23.0 °F - 21.0 °F 92% 30.53 in 5.0 mi Calm Calm - N/A   Clear
5:10 AM 24.8 °F - 21.2 °F 86% 30.50 in 1.8 mi Calm Calm - N/A   Clear
5:24 AM 24.8 °F 20.5 °F 23.0 °F 93% 30.51 in 3.0 mi West 3.5 mph - N/A   Clear
5:53 AM 26.1 °F - 24.1 °F 92% 30.55 in 4.0 mi Calm Calm - N/A   Clear
6:53 AM 25.0 °F - 23.0 °F 92% 30.55 in 3.0 mi Calm Calm - N/A   Clear
7:02 AM 24.8 °F - 23.0 °F 93% 30.52 in 1.8 mi Calm Calm - N/A   Clear
7:28 AM 24.8 °F - 23.0 °F 93% 30.53 in 3.0 mi Calm Calm - N/A   Clear
7:38 AM 26.6 °F - 24.8 °F 93% 30.53 in 1.8 mi Calm Calm - N/A   Clear
7:53 AM 27.0 °F - 24.1 °F 89% 30.57 in 2.5 mi Calm Calm - N/A   Clear
8:41 AM 32.0 °F - 28.4 °F 87% 30.54 in 4.0 mi Calm Calm - N/A   Clear
8:53 AM 33.1 °F - 28.0 °F 82% 30.58 in 7.0 mi Calm Calm - N/A   Clear
9:53 AM 35.1 °F 30.1 °F 27.0 °F 72% 30.58 in 8.0 mi ESE 5.8 mph - N/A   Clear
10:53 AM 39.0 °F 35.7 °F 27.0 °F 62% 30.56 in 9.0 mi East 4.6 mph - N/A   Clear
11:53 AM 39.9 °F 33.9 °F 27.0 °F 60% 30.52 in 10.0 mi SE 9.2 mph - N/A   Clear
12:53 PM 42.1 °F - 28.0 °F 58% 30.51 in 10.0 mi Calm Calm - N/A   Clear
1:53 PM 42.1 °F - 27.0 °F 55% 30.49 in 10.0 mi Calm Calm - N/A   Clear
2:53 PM 42.1 °F 40.2 °F 27.0 °F 55% 30.45 in 10.0 mi ESE 3.5 mph - N/A   Clear
3:53 PM 42.1 °F 40.2 °F 28.9 °F 60% 30.47 in 10.0 mi Variable 3.5 mph - N/A   Clear
4:53 PM 41.0 °F - 30.9 °F 67% 30.46 in 10.0 mi Calm Calm - N/A   Clear
5:53 PM 39.0 °F - 28.0 °F 65% 30.46 in 10.0 mi Calm Calm - N/A   Clear
6:53 PM 39.0 °F - 30.0 °F 70% 30.44 in 10.0 mi Calm Calm - N/A   Clear
7:53 PM 37.9 °F 34.4 °F 30.9 °F 76% 30.42 in 10.0 mi East 4.6 mph - N/A   Clear
8:53 PM 39.0 °F 36.8 °F 32.0 °F 76% 30.42 in 10.0 mi ESE 3.5 mph - N/A   Clear
9:53 PM 39.0 °F 36.8 °F 32.0 °F 76% 30.41 in 10.0 mi East 3.5 mph - N/A   Clear
10:53 PM 37.9 °F 34.4 °F 32.0 °F 79% 30.38 in 10.0 mi ESE 4.6 mph - N/A   Clear
11:53 PM 37.9 °F 34.4 °F 32.0 °F 79% 30.37 in 10.0 mi SE 4.6 mph - N/A   Clear